Wind_Speed
11 10 10 11 12 13 14 14 13 13 13 14 15 13 15 14 10 10 8 12 14 14 17 10 12 21 14 10 13 16 22 27 28 27 26 26 27 23 15 16 18 18 18 17 16 17 18 19 22 21 18 17 18 18 19 21 21 21 21 21 18 17 15 13 12 12 11 10 11 13 15 17 19 19 19 18 18 18 18 19 18 18 17 17 18 19
12 12 12 12 12 13 13 12 10 10 11 15 20 19 17 18 15 14 14 20 22 20 18 12 15 21 14 8 14 18 23 26 26 26 25 23 22 20 16 15 18 19 19 18 17 18 18 19 21 19 16 16 18 20 20 21 22 21 21 21 20 18 16 14 13 11 10 10 10 12 14 15 17 18 19 19 19 18 18 18 19 19 19 18 18 19
13 13 14 14 13 12 12 13 12 12 14 16 24 25 18 20 21 16 15 21 24 21 19 16 16 19 17 16 19 20 20 23 27 28 28 24 21 21 19 16 17 18 20 20 20 21 20 20 20 18 16 18 21 23 23 22 21 19 20 22 21 19 17 15 14 12 10 10 10 11 13 14 15 16 17 18 19 18 18 18 18 19 19 19 19 19
13 14 15 15 14 13 14 15 14 13 16 17 24 28 21 20 20 11 10 19 22 23 23 22 17 17 17 17 21 22 21 25 31 33 32 26 23 24 23 19 17 18 21 22 21 22 21 20 20 18 18 20 23 24 23 21 21 19 20 22 23 21 18 16 15 12 11 10 11 12 13 14 15 15 15 16 18 18 18 18 18 19 19 19 19 19
13 15 16 15 13 13 14 15 14 14 17 18 21 27 24 21 20 13 10 15 19 23 26 25 20 16 17 18 20 22 24 29 33 35 34 27 26 29 28 24 21 21 22 21 20 20 18 18 18 17 18 19 20 21 20 19 20 20 21 23 24 22 20 18 16 13 11 11 11 13 13 14 15 15 15 15 16 17 18 18 18 18 19 19 19 19
13 14 16 15 14 14 13 12 14 15 17 18 19 23 23 22 23 21 17 17 22 25 25 25 23 18 19 23 23 21 24 30 32 34 32 29 29 31 29 26 24 23 23 21 20 18 16 16 16 15 16 16 17 18 18 17 19 20 22 25 26 25 22 19 16 14 12 11 11 13 13 14 15 15 15 15 16 16 17 18 18 18 19 19 19 19
12 16 18 17 16 17 13 11 15 16 17 18 19 20 21 24 26 25 23 24 27 27 24 23 22 19 18 19 20 21 25 29 29 27 26 26 26 24 23 23 23 23 23 22 21 19 17 15 15 14 14 16 16 17 18 19 20 21 23 25 27 27 24 20 17 14 12 11 11 13 13 14 15 16 16 16 16 16 16 17 18 18 19 18 19 18
12 18 20 18 17 17 14 13 15 17 17 18 19 20 22 25 29 30 28 27 28 25 23 22 20 19 18 16 15 18 22 24 24 23 23 23 20 18 19 20 23 23 22 23 22 20 19 17 17 17 16 17 17 18 20 20 20 21 22 26 29 29 25 21 18 16 14 13 12 13 14 15 16 17 17 18 17 17 17 17 17 18 18 18 18 18
15 18 21 20 17 15 15 13 15 17 17 17 17 19 23 25 28 29 28 28 28 28 26 24 22 22 22 20 18 19 20 19 20 23 24 23 21 21 22 23 24 24 24 25 24 21 20 20 19 18 18 18 18 20 22 21 21 20 22 27 29 27 24 21 20 19 17 14 13 14 14 15 17 18 18 19 18 18 18 17 17 18 18 18 18 18
19 21 25 24 18 14 14 15 17 16 15 17 18 19 23 25 25 26 26 26 28 29 28 25 24 25 25 21 18 19 19 19 23 27 27 25 23 23 25 25 24 23 24 24 23 21 19 18 17 17 18 18 19 21 21 20 21 22 23 27 27 25 23 21 21 22 20 17 15 15 15 16 18 19 19 19 19 18 18 17 17 17 17 18 18 18
18 21 22 21 19 14 15 18 19 17 16 20 21 20 21 22 21 22 24 25 26 26 24 20 18 21 24 21 19 18 18 21 25 27 28 25 21 21 23 23 23 24 26 24 23 22 19 17 17 18 19 19 20 20 21 21 23 24 23 24 26 28 26 23 21 23 24 21 18 16 16 17 18 19 20 19 19 18 18 17 16 17 17 17 18 18
16 20 18 17 17 15 16 19 21 20 18 19 20 21 22 20 19 20 22 25 26 23 20 17 15 19 23 21 19 18 19 23 25 25 26 24 21 22 23 23 24 24 25 25 24 22 20 18 18 20 21 22 23 23 24 25 25 25 23 23 26 31 33 28 23 24 26 25 22 19 18 18 19 20 20 20 19 19 18 17 16 16 17 17 17 17
16 20 21 19 16 16 18 21 23 20 15 14 17 20 21 19 18 19 22 24 24 21 19 18 19 21 21 19 18 18 19 24 23 22 25 24 22 22 23 24 24 22 22 23 23 23 22 22 21 22 23 25 25 26 27 26 26 26 25 24 26 29 34 32 25 24 26 27 25 22 20 20 20 20 20 20 19 19 18 17 16 15 16 16 16 17
18 19 20 18 16 15 15 19 22 18 15 14 14 16 18 19 20 21 23 24 22 20 18 19 21 21 20 19 18 17 19 24 24 23 25 24 21 20 21 23 22 21 21 21 22 23 25 27 26 24 24 24 25 26 27 26 27 28 28 26 26 28 32 34 29 26 26 28 28 26 23 21 21 20 19 20 20 20 18 16 15 15 15 15 15 16
17 15 14 13 15 13 10 14 19 18 17 13 9 12 15 16 19 21 22 21 20 21 19 18 18 17 18 21 21 19 21 23 22 23 25 24 21 21 22 23 23 22 20 19 20 23 25 27 28 27 26 26 26 27 28 28 29 30 31 29 26 27 30 35 37 31 28 29 29 29 26 22 22 20 18 19 19 19 18 16 15 14 14 15 15 15
17 14 9 9 14 14 10 9 13 16 16 11 8 9 12 14 16 18 18 17 18 20 18 17 17 14 14 18 19 19 20 20 19 20 22 23 22 22 23 24 23 19 17 18 23 25 25 26 27 28 28 27 28 28 28 28 29 30 31 30 27 28 30 34 39 33 27 29 29 29 27 22 21 19 18 18 18 17 18 16 15 15 15 15 16 16
16 15 10 6 11 12 10 8 11 17 17 15 12 9 9 14 15 15 16 16 19 20 18 16 17 15 15 16 15 16 17 19 20 20 20 21 22 23 24 24 23 21 20 23 26 25 25 25 25 26 26 27 28 28 27 27 28 29 31 30 28 29 29 30 34 32 27 26 27 28 26 22 20 19 18 17 17 16 16 16 16 15 16 16 16 17
19 17 15 14 12 10 10 13 15 16 18 18 16 14 13 14 13 14 15 16 19 20 18 17 17 16 17 18 18 17 17 19 21 21 22 24 23 23 24 22 22 23 24 25 25 24 23 24 23 23 24 25 26 28 28 29 29 30 31 31 29 28 27 25 27 28 28 27 27 28 26 22 20 19 19 18 17 16 15 16 17 16 16 18 17 17
21 19 20 22 20 12 11 14 14 14 16 17 17 17 15 12 11 13 15 15 16 17 16 15 14 15 15 17 18 16 15 18 20 22 25 25 23 21 20 18 18 20 21 21 21 21 21 21 21 22 23 23 24 25 26 27 28 29 30 31 31 30 29 26 22 22 26 28 30 31 27 22 21 20 20 20 18 17 16 16 17 17 18 18 18 18
22 21 23 24 21 17 15 13 9 10 12 12 14 16 14 14 15 15 14 14 15 15 14 13 12 14 16 16 17 17 16 18 21 25 26 22 21 19 15 15 18 17 17 18 19 19 20 20 21 22 23 23 23 23 24 24 25 26 28 29 30 30 31 31 26 22 24 25 28 32 29 22 21 21 22 22 21 19 18 17 18 18 19 19 19 19
22 22 24 24 22 18 15 10 6 10 11 9 12 13 12 15 18 18 18 18 18 17 16 14 14 16 18 18 18 19 20 20 21 25 24 22 23 20 13 14 18 17 16 18 19 21 21 21 22 23 23 23 23 23 23 23 23 24 26 27 28 30 31 34 32 28 26 24 25 30 30 23 20 22 24 25 23 21 19 18 19 20 20 21 21 20
25 26 24 23 21 18 16 15 14 16 17 13 13 15 15 17 18 19 20 20 20 19 19 19 18 19 20 20 20 21 22 23 24 24 23 23 25 22 16 17 20 18 18 21 22 23 24 24 24 24 24 23 24 24 23 23 24 24 25 26 28 30 32 34 35 33 30 27 25 27 29 27 26 27 27 27 25 22 20 20 20 21 21 22 21 21
25 25 21 19 20 19 20 22 22 20 19 17 16 18 20 21 21 20 20 19 18 18 19 19 19 19 20 20 21 21 22 25 25 24 24 24 26 25 23 23 24 23 23 24 24 25 26 26 26 26 25 25 25 26 26 26 26 26 26 27 28 31 33 35 37 36 35 32 29 29 29 30 32 32 30 29 27 25 23 23 22 22 22 22 22 22
24 23 21 20 21 22 22 23 22 20 20 21 19 17 21 24 24 24 22 21 20 21 22 21 21 22 23 23 24 23 23 25 25 24 24 25 27 28 25 24 26 26 27 26 26 26 27 28 28 27 27 27 27 28 28 29 29 30 29 29 29 31 33 36 37 38 37 36 34 32 31 32 35 35 34 32 30 29 29 28 26 26 26 26 26 25
25 24 25 24 24 24 23 23 21 20 21 23 21 21 24 26 27 27 27 26 27 28 28 27 26 26 27 27 27 25 25 28 29 28 27 27 28 28 25 24 27 28 29 29 29 29 29 29 29 29 29 30 30 31 31 31 32 33 33 33 33 32 33 35 36 38 39 39 37 34 32 32 33 34 34 32 31 32 33 32 31 30 29 30 30 29
25 25 25 26 26 26 25 25 25 24 24 26 26 26 27 26 27 28 28 28 30 30 29 30 30 29 29 30 30 28 27 29 31 32 31 29 28 27 27 28 29 30 31 33 34 33 33 33 33 33 33 33 33 33 33 33 34 34 35 35 36 35 35 35 36 37 38 39 39 37 35 35 34 33 33 33 33 33 33 34 33 31 30 30 30 31
29 27 26 27 28 28 27 27 27 26 26 27 28 29 29 29 29 29 27 27 27 28 28 29 29 28 28 30 32 31 30 30 30 31 31 30 30 29 30 30 29 29 32 34 35 35 35 35 35 36 36 35 35 34 35 35 35 36 36 37 37 38 38 38 38 38 39 40 41 40 40 39 39 38 37 36 36 35 35 35 34 33 31 30 29 30
32 31 30 30 31 31 30 30 29 28 28 28 29 31 31 32 33 32 32 32 32 32 32 31 31 31 30 31 31 31 33 32 31 31 31 33 35 35 34 33 30 29 30 32 34 35 35 35 36 37 38 37 36 36 37 37 38 38 38 38 39 40 40 41 41 41 41 42 42 42 43 42 42 42 41 40 40 39 39 38 37 37 37 35 34 34
34 33 33 33 34 34 34 34 33 32 32 32 33 34 34 35 35 36 36 35 35 37 37 36 36 36 36 35 33 34 36 37 37 36 37 38 39 40 40 38 36 33 32 33 33 34 36 37 38 39 40 40 40 40 40 39 39 40 40 40 41 42 43 44 44 44 44 44 44 44 45 46 46 45 45 44 44 43 43 43 42 42 42 41 41 40
36 36 36 36 37 37 37 37 36 36 36 37 37 37 37 38 38 39 39 39 40 42 42 41 41 41 42 42 40 40 42 43 43 44 44 43 42 43 44 44 44 44 43 41 38 37 37 38 40 42 42 42 43 43 43 42 41 41 41 42 42 43 44 46 47 48 47 47 47 47 47 48 49 49 49 49 48 47 47 47 47 46 46 46 45 44
38 37 38 38 37 38 38 38 38 39 41 41 41 41 42 43 43 42 42 43 44 45 46 47 47 46 46 46 46 46 45 45 45 46 46 46 47 49 49 47 47 47 46 46 46 44 41 39 40 42 43 44 44 44 44 44 43 42 41 41 41 42 42 44 46 49 50 50 49 49 49 49 50 51 51 51 51 51 51 51 51 50 49 48 48 47
44 42 42 40 39 39 39 39 40 41 42 43 44 45 45 45 45 44 44 46 47 48 48 48 48 48 49 49 48 49 48 47 47 48 47 46 48 51 51 50 50 49 48 48 49 48 47 45 43 42 42 43 44 44 45 44 43 42 40 40 41 42 42 42 42 44 47 50 51 51 51 51 51 52 53 53 53 54 54 54 53 53 52 50 49 48
47 47 46 46 46 46 45 43 42 42 42 41 42 42 43 43 44 45 46 46 47 48 47 46 46 48 50 50 48 47 47 46 47 48 48 47 46 47 48 50 51 51 51 52 53 52 51 50 49 47 44 44 44 44 44 44 45 43 41 41 42 43 43 42 43 43 44 46 48 48 49 49 50 51 53 53 54 55 56 56 56 55 55 53 52 50
46 46 46 47 47 47 46 45 44 44 43 41 40 40 41 42 42 43 44 44 43 43 43 44 45 46 47 49 48 47 46 47 47 47 49 48 46 45 45 47 48 48 50 51 52 52 52 51 52 52 49 46 44 43 43 45 48 48 46 45 44 43 43 43 44 44 42 43 44 44 45 46 47 48 50 51 52 53 53 54 54 55 55 55 54 54
43 43 43 43 45 46 46 46 45 45 45 44 44 43 43 44 44 42 43 44 42 41 42 44 46 46 47 49 50 49 49 49 48 48 49 49 48 47 47 47 48 49 50 50 51 51 51 52 53 53 51 48 48 48 48 48 49 49 49 48 46 45 45 46 46 46 45 44 45 46 48 48 48 48 49 50 51 51 51 51 52 52 52 53 54 54
41 41 40 40 43 45 45 46 46 46 45 45 46 47 46 47 47 46 46 48 47 46 46 47 48 49 50 50 50 51 51 51 51 50 49 48 47 48 47 46 46 47 49 51 52 50 48 47 50 52 52 51 52 53 53 53 53 50 48 48 48 47 47 47 48 49 50 50 50 51 52 51 50 50 50 50 51 51 51 51 51 51 51 51 52 52
41 41 40 41 43 44 44 45 46 46 46 46 46 46 46 46 47 48 49 50 50 48 48 48 48 50 51 51 50 51 52 52 52 51 50 48 47 47 47 45 46 46 47 49 51 50 46 45 47 49 50 50 50 51 52 54 55 54 52 50 49 49 49 50 51 52 53 53 54 54 54 54 53 52 51 51 50 51 51 51 51 51 51 51 51 52
43 43 43 43 45 45 46 47 48 48 47 46 45 45 44 44 45 45 45 47 48 47 47 47 47 47 49 48 48 48 48 49 49 50 50 50 48 48 47 47 47 48 49 50 51 51 50 49 49 50 50 51 50 49 50 52 54 56 55 53 52 51 52 52 53 53 54 55 55 55 55 55 53 51 49 49 50 50 50 50 50 51 51 51 51 51
42 43 43 44 46 47 47 48 49 48 46 44 43 43 42 41 41 42 42 43 44 45 45 45 45 44 45 45 44 44 44 46 47 49 49 50 49 47 46 46 47 48 49 50 52 53 54 54 54 54 54 55 55 55 56 57 58 58 59 59 58 57 57 57 57 57 57 57 57 57 56 55 53 51 50 50 50 50 50 50 50 51 51 51 51 51
40 39 40 42 43 44 44 45 45 45 44 42 41 41 42 41 41 42 43 44 45 46 46 45 45 44 44 44 44 44 45 46 48 49 50 50 50 49 47 46 46 47 48 49 50 52 53 55 57 58 58 58 58 59 60 61 63 63 63 63 62 61 61 61 61 61 60 58 57 56 55 54 54 53 52 51 50 50 49 50 50 51 51 52 52 53
36 36 36 38 38 39 40 40 40 41 41 41 40 40 41 42 41 42 43 44 45 46 47 46 46 46 46 46 47 48 49 50 51 51 52 51 51 50 50 49 49 49 49 49 49 50 51 53 55 58 59 60 60 61 62 63 64 64 63 62 61 61 61 61 62 61 60 58 57 56 55 55 54 53 52 51 50 49 49 49 49 49 50 51 52 53
33 34 34 35 35 37 38 39 39 39 39 39 40 41 41 41 41 42 44 44 44 45 46 47 48 48 48 48 50 51 52 51 51 50 50 51 50 49 49 50 50 50 50 50 51 51 51 52 53 55 57 59 61 63 64 65 65 65 64 63 62 61 61 61 61 61 59 58 56 55 53 52 51 50 50 49 49 48 48 48 48 47 48 49 50 50
33 34 35 36 37 38 38 39 39 38 38 39 40 42 42 42 43 45 45 46 47 47 47 48 49 50 51 51 51 51 51 50 49 48 48 49 50 50 49 49 50 50 50 51 51 52 52 53 53 54 55 57 60 62 63 64 64 65 65 65 63 62 61 60 59 58 57 56 54 53 52 51 50 50 50 49 48 48 47 47 47 46 47 48 47 47
34 36 37 39 41 40 40 41 40 40 41 42 42 43 45 45 47 49 49 49 50 51 49 48 48 49 50 50 50 50 50 50 50 49 49 50 51 52 52 51 50 50 51 51 52 53 53 54 54 54 54 55 57 59 61 63 64 64 64 64 62 61 60 59 58 56 55 55 54 54 54 53 53 52 51 50 49 48 47 46 46 46 46 47 47 46
35 36 37 39 41 41 41 41 41 41 43 44 43 44 45 46 48 50 51 51 51 51 49 48 48 48 50 51 51 52 53 53 52 52 51 51 51 52 53 53 52 52 52 53 54 54 55 56 57 57 56 56 56 58 59 61 61 61 62 62 61 60 59 58 58 57 56 56 56 56 56 56 55 53 52 50 49 47 46 46 46 46 46 46 46 45
36 36 37 38 41 41 41 42 42 43 44 46 46 46 47 48 50 52 52 53 53 52 52 52 52 52 53 53 54 54 54 55 55 54 53 51 51 51 51 52 52 51 51 52 53 55 56 57 58 58 58 57 57 57 57 58 58 58 58 58 58 58 58 58 58 57 57 57 57 57 57 56 55 53 52 50 49 48 47 46 46 46 45 45 45 44
33 33 34 37 38 39 40 43 43 42 43 44 45 46 47 48 49 51 52 53 54 54 54 54 54 53 52 52 53 53 53 53 54 53 52 51 51 50 50 50 49 49 50 51 52 54 55 56 56 57 57 57 56 55 55 54 54 54 55 55 56 57 57 58 57 57 57 57 56 56 56 55 54 53 52 51 50 49 47 47 46 45 44 44 44 44
30 30 31 33 34 35 38 40 39 39 40 41 42 43 44 45 47 49 51 52 53 53 54 54 53 52 51 51 51 51 50 51 51 51 51 51 50 50 50 49 49 49 49 50 51 52 53 54 54 54 54 55 55 54 54 53 52 52 53 53 55 56 57 57 56 56 56 56 56 55 54 54 53 52 52 51 50 49 48 47 46 44 43 43 43 43
27 29 30 30 31 32 34 35 36 36 38 40 40 42 43 44 46 47 49 50 52 53 53 53 53 53 52 52 51 51 50 50 50 50 50 50 50 50 50 50 49 49 50 51 51 51 51 52 52 53 53 53 54 54 55 54 53 53 54 53 54 55 56 56 56 55 55 55 55 54 54 53 52 52 52 50 50 49 48 47 45 44 44 44 44 43
28 29 29 28 29 31 33 34 35 36 37 39 40 41 42 43 45 46 47 49 50 51 52 52 52 53 53 53 52 51 51 50 50 50 50 50 50 50 50 51 50 50 50 50 51 51 51 51 51 52 52 53 54 55 55 55 54 54 55 54 54 55 55 55 55 55 55 54 54 54 54 53 52 52 51 50 49 48 47 46 45 45 45 45 44 44
28 29 28 28 28 30 33 34 36 37 38 39 40 41 42 43 44 45 46 46 47 47 48 48 48 49 49 50 50 50 50 50 50 50 49 49 49 50 50 50 50 49 50 50 51 51 52 51 51 51 52 52 54 54 55 55 55 55 55 55 55 55 55 55 54 54 54 54 54 54 54 54 53 52 51 49 48 48 47 46 45 45 46 46 45 44
Wind_Direction
238 233 236 237 229 226 231 231 221 232 239 206 187 177 161 160 194 224 244 254 249 248 260 262 195 199 220 261 274 275 276 277 269 269 280 281 282 287 278 263 260 259 259 255 251 256 260 263 267 271 274 280 285 283 281 283 283 279 277 275 274 276 279 284 287 290 297 302 305 302 299 300 298 294 292 291 289 291 294 296 297 296 293 287 283 280
239 230 230 236 237 238 238 237 225 212 219 202 187 188 181 164 176 206 229 245 245 242 250 244 194 187 192 238 261 268 274 280 275 267 275 282 284 288 282 267 263 262 263 262 259 259 257 260 267 272 276 278 278 278 280 282 282 279 277 275 275 277 278 280 282 286 292 297 300 298 296 296 297 296 294 293 292 291 292 294 296 296 296 294 289 285
238 232 230 233 232 236 237 233 230 216 211 204 190 190 192 181 182 196 214 237 247 246 244 231 207 207 212 211 223 248 269 276 275 273 277 282 285 286 282 271 265 263 264 261 260 260 260 265 271 274 274 273 275 278 278 277 275 275 275 275 275 276 277 277 278 282 286 290 291 289 290 291 292 293 293 292 291 290 290 290 292 294 295 295 293 290
237 236 232 238 235 229 234 234 236 232 221 212 195 190 193 192 184 185 224 242 250 254 252 242 236 235 226 214 215 227 245 257 264 270 274 281 286 284 282 274 267 264 263 262 261 262 264 267 270 270 269 269 271 273 274 270 265 266 272 275 276 276 277 277 277 280 284 286 291 291 289 287 289 291 289 289 288 287 287 287 288 290 291 292 291 290
233 239 236 240 243 235 237 236 231 229 222 218 207 196 196 202 195 193 227 247 250 253 255 253 249 239 228 235 236 227 228 240 251 260 268 277 279 278 280 278 273 271 271 271 270 269 268 267 269 271 270 268 268 270 272 266 260 263 270 274 276 276 276 277 279 283 288 292 297 299 297 294 294 294 292 288 287 285 284 285 285 286 287 287 287 287
229 247 251 244 243 242 241 235 224 222 220 218 217 208 203 205 203 203 215 236 244 244 251 258 257 245 236 241 243 236 230 235 245 253 262 268 267 271 276 275 273 274 276 278 277 275 271 267 270 272 270 269 269 271 273 270 263 263 268 272 275 275 274 276 281 286 292 297 301 304 304 303 300 299 299 295 290 287 284 283 283 283 284 283 282 283
234 249 256 249 248 248 242 230 224 224 222 219 220 220 211 204 207 213 219 230 239 242 245 252 253 246 240 235 232 231 228 234 247 256 263 267 264 266 271 273 275 274 276 279 278 277 274 270 269 269 269 271 273 274 276 276 269 265 267 271 275 276 275 276 281 287 294 299 301 304 306 305 304 303 303 302 297 292 288 284 283 282 282 282 280 279
237 248 254 254 252 249 239 227 228 228 225 226 225 228 224 212 212 220 224 230 240 248 248 247 245 238 240 242 237 234 229 234 250 261 267 269 267 266 270 277 278 275 275 276 277 278 276 273 273 272 271 271 273 274 277 279 274 268 267 269 274 276 274 277 283 287 294 300 301 302 305 305 306 307 306 304 300 295 290 285 282 281 281 280 279 278
223 237 248 256 252 248 247 233 233 236 230 230 229 231 234 229 226 229 229 231 238 246 248 248 250 249 250 252 244 238 237 240 249 258 264 265 265 269 272 273 272 271 271 270 272 275 274 273 270 269 269 269 270 271 274 274 273 271 267 268 271 270 271 276 285 291 295 301 303 301 304 305 306 308 307 305 301 295 291 286 282 279 278 278 277 277
222 232 243 255 256 253 252 233 227 233 231 230 232 236 240 238 240 242 238 236 239 245 247 249 254 258 260 259 247 237 236 237 240 249 257 260 264 268 269 267 264 265 266 264 266 266 267 271 273 275 273 268 266 268 269 269 272 274 275 274 266 260 271 283 289 295 298 300 302 300 300 303 305 305 306 304 299 293 289 284 282 280 278 277 276 276
232 236 242 255 258 250 247 238 229 224 224 230 234 241 248 246 247 248 244 243 244 248 253 256 257 258 260 260 253 243 238 237 239 245 251 253 257 257 256 263 268 267 265 266 268 270 273 278 285 286 277 268 266 267 269 271 274 275 279 281 267 255 270 288 294 297 299 299 299 298 297 299 302 302 302 299 294 289 286 282 280 280 280 280 279 279
235 238 245 251 248 240 238 242 243 238 236 235 232 239 249 250 248 241 237 239 243 248 253 255 249 248 251 253 252 247 242 242 242 244 246 245 246 242 243 259 272 273 271 270 274 281 287 288 287 284 277 272 272 271 272 273 275 275 273 278 275 265 266 278 292 297 296 297 296 293 295 296 298 300 296 293 288 284 282 279 279 279 280 283 283 283
233 238 249 253 247 240 234 238 247 251 255 250 237 242 250 250 245 237 234 239 244 248 249 247 241 239 243 246 247 243 240 244 244 242 246 247 245 242 245 255 264 272 276 277 284 291 292 286 280 277 274 274 275 275 276 276 277 276 270 269 276 275 267 268 285 297 291 291 293 290 293 294 294 295 290 285 282 279 277 275 275 278 280 283 285 285
239 242 253 261 257 247 234 234 241 242 244 248 247 250 250 246 241 237 239 243 246 247 246 245 242 238 238 242 244 236 232 240 241 238 242 246 246 248 251 253 256 264 275 282 291 290 284 280 279 277 276 278 279 277 278 279 279 277 273 270 271 276 272 264 273 289 285 280 285 286 289 292 290 287 281 276 275 275 275 271 271 275 278 282 283 285
244 247 245 243 240 235 230 232 231 227 229 234 251 269 268 258 249 245 247 249 248 247 245 243 243 239 234 237 240 235 232 239 242 242 243 244 250 256 256 255 256 264 274 280 279 275 274 279 281 279 278 279 280 279 279 280 280 278 277 277 271 274 277 266 263 274 276 272 277 280 283 286 283 277 271 267 269 271 271 270 271 273 275 278 281 281
239 239 227 229 234 224 220 227 211 207 217 214 218 262 279 272 257 251 252 250 247 248 243 239 243 241 235 239 241 236 235 242 247 248 246 243 247 254 257 258 262 268 269 264 263 266 271 275 277 278 279 279 279 279 280 279 279 279 278 280 277 275 280 271 260 261 264 266 271 274 278 280 274 267 262 262 264 266 269 269 270 275 276 278 279 279
229 220 204 235 258 234 215 214 194 195 209 210 200 206 244 261 259 253 249 243 241 244 241 239 244 246 247 254 257 252 250 252 253 255 255 253 253 258 264 270 274 273 265 261 264 268 271 272 274 278 278 279 279 277 277 277 278 279 279 281 281 277 276 268 256 252 254 261 265 268 273 274 265 260 259 259 262 262 267 270 269 275 280 280 281 280
225 212 195 196 219 239 237 226 214 215 223 220 206 199 221 252 265 260 251 245 243 246 246 244 245 250 256 261 264 264 260 256 258 261 260 260 263 266 270 272 271 269 265 266 269 269 270 272 275 278 278 279 280 278 277 277 276 278 278 278 280 279 276 268 258 254 256 263 266 264 267 267 259 257 258 258 261 260 263 269 270 273 278 281 283 282
230 217 207 199 193 206 237 230 223 235 243 236 221 213 222 237 246 251 255 254 252 252 251 246 242 244 249 253 257 259 257 256 261 264 262 264 266 263 260 258 259 261 263 266 268 268 269 272 275 279 280 279 280 279 278 278 278 279 279 278 279 280 280 277 272 265 262 268 269 261 258 262 259 258 259 257 260 261 260 264 267 270 275 278 280 281
237 220 214 212 201 200 219 230 239 249 249 242 227 221 230 237 236 241 251 257 256 254 254 249 243 243 243 244 250 252 249 250 256 260 262 266 268 260 250 252 259 262 264 267 270 271 270 272 274 276 278 278 278 276 276 277 278 279 280 280 281 281 279 278 279 277 271 273 271 258 252 259 264 263 261 259 258 260 260 261 264 266 269 273 277 279
240 230 220 219 217 218 221 218 240 257 246 230 219 223 236 243 242 241 243 251 256 254 253 250 246 247 247 245 247 248 248 249 253 257 258 265 270 261 250 261 264 263 270 275 276 275 274 275 274 273 275 276 276 274 274 274 275 277 278 279 280 279 277 277 279 280 276 275 273 261 253 259 271 273 270 265 262 260 260 263 264 265 267 270 272 274
239 240 234 228 227 233 229 209 209 229 232 225 222 227 233 238 243 245 244 248 251 248 247 249 248 250 251 249 246 246 250 251 252 254 258 266 268 261 260 266 261 259 274 283 283 280 279 279 278 276 275 274 272 272 271 271 272 273 275 275 276 275 275 275 276 276 275 273 271 266 261 262 272 278 276 272 270 269 267 267 267 266 267 268 269 272
241 244 246 243 237 236 231 223 225 232 236 239 236 231 232 238 245 252 251 249 249 247 247 249 251 253 255 257 256 255 255 254 253 254 258 264 267 267 271 267 256 258 273 281 283 281 280 280 280 280 278 276 274 272 270 269 269 270 271 271 271 270 271 272 273 274 275 273 270 269 268 267 271 275 274 271 273 274 272 270 266 264 263 262 262 265
242 246 249 248 243 238 234 234 238 243 247 252 251 243 239 239 244 251 254 253 255 258 259 258 260 261 262 265 267 266 266 264 263 263 264 269 272 274 274 266 258 263 272 277 279 280 279 279 279 279 280 279 277 275 274 272 272 271 271 271 268 266 265 266 268 270 272 273 273 273 271 270 271 271 270 270 271 273 273 269 265 263 263 261 258 260
244 247 246 244 243 241 240 239 237 233 237 244 246 246 246 244 248 253 255 257 258 259 262 263 262 263 264 266 266 265 266 268 269 269 270 271 271 269 267 264 264 268 271 275 277 277 277 276 276 277 279 278 277 276 274 274 273 273 274 274 271 266 263 263 264 266 268 270 273 274 272 270 269 266 267 271 273 272 271 269 265 265 265 264 261 260
246 249 247 244 243 241 243 247 244 237 237 241 243 248 251 252 255 256 256 259 260 261 264 265 262 262 265 266 266 265 265 267 268 269 269 266 264 265 265 266 267 268 270 273 274 274 274 273 273 274 275 276 275 273 271 270 270 271 271 272 272 269 266 263 263 264 266 268 270 271 270 270 268 265 266 270 273 272 270 267 266 267 268 268 265 262
246 248 248 248 248 247 246 250 252 250 247 244 246 251 255 255 256 258 256 257 261 264 268 267 264 264 266 266 268 268 266 265 266 268 268 266 267 270 271 271 269 266 268 270 271 271 271 271 270 271 272 272 270 268 268 268 268 268 267 267 268 269 268 267 265 265 265 267 268 270 271 271 271 270 270 271 271 272 270 267 265 265 266 267 266 264
254 254 253 253 255 255 253 250 249 251 249 247 248 252 255 256 258 262 263 263 265 267 268 267 265 265 266 264 265 267 266 264 262 263 266 268 270 271 271 272 270 267 267 270 271 272 272 271 270 270 269 268 265 263 264 265 266 266 265 265 264 264 265 266 267 266 266 266 267 269 271 273 273 273 273 273 272 272 272 269 267 267 267 268 268 269
259 260 259 257 256 256 256 253 249 248 247 247 249 251 254 255 256 259 263 266 267 267 266 264 264 266 265 262 259 262 266 267 265 266 268 269 271 271 270 271 270 268 268 270 271 273 274 274 274 273 271 269 267 263 261 262 263 263 263 264 263 262 261 261 262 263 264 265 265 266 268 270 271 272 273 274 274 273 273 273 271 270 270 270 271 271
259 261 260 258 258 257 257 257 257 255 252 250 249 251 254 255 255 256 259 261 263 266 267 265 266 267 265 262 261 261 264 266 268 271 271 270 269 269 270 273 273 272 271 270 270 271 272 273 274 273 271 269 268 266 264 263 263 263 263 264 264 264 262 259 258 258 259 261 262 263 265 266 268 270 271 272 273 274 274 274 274 274 274 273 273 273
259 262 261 259 260 261 262 262 262 260 258 256 254 254 254 255 256 258 260 262 264 266 268 269 269 267 263 263 265 265 265 265 266 267 268 268 269 270 271 272 272 271 270 269 267 265 265 267 269 269 269 268 268 268 267 267 267 267 266 266 266 265 264 263 262 259 257 257 259 260 261 263 264 266 268 269 271 272 272 273 274 274 274 274 274 275
263 266 267 265 265 266 267 267 265 263 262 261 261 260 259 259 260 261 262 264 265 265 266 269 268 266 265 267 268 269 268 267 265 263 262 264 267 270 271 269 268 268 267 267 267 265 262 263 263 264 266 268 268 268 269 269 270 269 268 266 265 264 265 268 269 265 260 258 258 259 259 260 262 263 264 265 267 268 269 270 271 272 272 272 272 272
268 269 270 269 270 270 269 268 267 266 265 264 263 263 263 263 263 262 262 262 263 264 264 265 265 266 269 271 271 270 270 268 266 265 263 262 263 265 267 268 269 269 267 267 269 268 265 263 262 261 264 268 267 267 269 270 269 268 265 263 263 264 265 267 269 268 265 261 260 260 261 262 263 264 264 264 265 265 266 268 269 269 270 270 270 269
269 269 269 269 269 268 267 265 264 264 263 262 262 262 263 263 262 261 261 261 262 264 265 265 265 266 269 270 269 269 269 267 266 266 266 265 265 265 266 266 267 267 266 265 267 268 267 266 265 265 265 265 264 264 267 268 268 267 265 264 264 265 265 265 265 265 264 263 263 263 265 266 267 268 268 267 266 266 266 267 267 268 268 268 268 268
266 267 267 268 267 266 265 264 262 261 261 261 261 261 261 262 262 261 261 261 262 263 265 267 268 269 269 269 269 269 269 268 267 267 268 268 268 268 267 266 265 264 264 263 262 263 264 265 266 266 265 264 263 264 266 267 268 268 267 266 266 266 265 263 262 261 261 263 264 266 268 269 270 271 270 269 268 268 267 267 268 268 268 269 269 269
265 265 265 265 264 264 264 265 264 264 263 263 262 261 261 262 263 263 262 263 263 262 262 265 267 267 267 267 268 269 270 270 270 270 270 270 269 268 268 266 265 263 263 263 262 261 262 262 263 264 265 265 265 264 263 264 265 266 266 265 265 265 264 264 263 261 261 261 263 266 267 267 269 270 270 269 268 267 267 267 267 267 268 268 269 270
262 264 264 264 264 264 265 266 266 265 264 264 264 264 265 266 266 266 265 266 265 264 263 263 263 263 264 264 266 267 269 269 270 270 269 268 267 267 266 264 263 262 261 261 263 263 261 260 260 262 263 264 264 264 263 262 262 261 261 262 264 264 264 264 264 263 263 263 265 266 266 266 268 268 266 265 265 265 266 266 266 266 267 267 268 269
260 262 263 264 265 266 266 266 266 266 267 267 268 267 267 267 267 267 267 267 266 265 263 262 261 262 263 264 264 264 265 266 267 267 267 267 266 265 264 263 261 260 259 258 259 259 258 257 258 259 258 258 258 259 260 261 261 260 260 261 263 264 265 264 264 264 265 266 267 268 268 268 269 267 264 263 263 263 263 264 264 265 266 266 267 267
261 261 262 263 263 265 266 267 268 269 270 270 270 268 266 265 265 265 265 264 264 264 263 262 262 261 262 263 262 261 261 262 263 265 266 266 266 265 265 264 263 261 260 258 257 256 256 256 256 257 256 255 255 256 257 260 261 261 262 262 263 264 265 266 266 266 267 268 268 268 269 269 269 267 266 265 263 262 262 263 263 264 265 265 265 266
260 260 261 262 262 264 266 267 269 270 270 269 268 267 265 263 263 264 265 265 265 266 266 265 265 265 264 263 262 260 260 261 263 265 265 265 266 266 264 263 262 262 261 260 259 258 257 256 256 256 257 257 258 258 259 260 261 262 263 264 265 265 265 266 266 267 268 269 269 269 270 269 269 268 267 265 264 263 263 263 263 263 264 265 265 265
259 258 258 259 260 260 262 265 267 269 269 269 268 267 266 265 265 265 266 266 267 268 269 269 269 268 266 266 265 264 263 263 264 265 265 264 264 265 264 263 262 262 261 261 259 258 257 257 256 256 256 257 258 258 259 260 261 262 262 263 264 264 265 265 266 267 268 269 270 270 271 270 269 268 266 265 265 264 263 263 262 263 263 264 265 266
256 254 254 255 255 256 259 262 264 265 267 268 267 267 267 267 267 267 268 267 266 267 268 269 270 269 268 267 266 266 266 266 266 265 265 264 264 263 264 264 264 264 263 261 260 259 258 257 256 255 256 256 256 256 257 258 260 261 261 262 262 262 263 264 265 267 268 269 269 269 269 268 268 267 267 266 266 265 265 264 264 264 264 264 265 266
252 251 252 253 254 255 257 259 260 263 264 264 264 265 266 267 268 267 266 266 265 266 267 269 270 270 271 270 270 269 268 269 268 266 265 265 265 265 264 264 265 265 265 264 263 261 260 259 257 256 256 256 257 257 258 258 259 260 261 262 262 263 263 265 266 267 268 268 269 268 267 266 266 266 267 266 266 266 266 266 266 266 267 267 267 267
249 250 250 252 255 257 258 259 261 262 262 262 263 264 266 266 266 265 265 266 268 270 271 271 270 271 273 274 274 273 272 271 269 267 266 265 266 266 266 265 264 264 263 264 263 263 262 261 259 257 256 255 256 257 258 258 258 259 261 262 263 264 264 265 266 267 267 267 267 267 266 266 266 266 266 265 265 265 265 266 267 267 268 268 269 269
248 250 252 253 256 258 259 261 263 263 264 264 264 263 264 263 263 264 266 269 271 273 273 273 273 274 275 275 274 274 273 272 270 268 266 266 265 265 265 264 264 263 263 263 263 263 262 261 261 260 258 257 255 255 256 257 258 259 260 262 264 265 265 266 266 266 266 266 266 265 266 266 267 266 266 266 266 266 265 266 266 267 267 268 269 269
250 252 255 257 259 261 262 262 262 262 264 265 264 263 262 263 264 267 270 271 271 272 272 271 272 272 272 271 272 272 272 271 271 270 269 268 267 266 265 265 264 264 263 263 263 262 262 262 263 263 263 262 260 259 259 259 260 260 261 262 263 264 265 265 264 264 263 263 264 264 265 266 266 266 266 267 266 266 266 267 267 267 268 269 269 269
260 261 261 262 262 262 262 262 264 265 266 267 266 266 266 267 268 270 271 271 271 271 271 271 271 270 270 270 270 270 270 271 272 272 272 271 270 269 268 267 266 265 263 263 262 262 263 263 264 265 265 265 265 265 264 263 263 262 262 262 262 262 261 261 261 261 261 261 261 262 263 263 265 266 266 267 267 267 267 267 267 268 269 269 269 268
270 269 266 264 264 263 263 264 267 269 269 268 268 268 268 269 269 269 269 270 271 271 272 272 273 273 272 272 271 271 270 270 271 271 271 271 271 270 270 269 267 266 265 263 262 262 263 264 265 265 266 267 267 267 266 265 263 262 261 260 260 260 260 261 261 261 261 261 261 261 261 262 263 264 265 266 268 268 268 268 269 269 268 267 267 266
269 267 266 266 267 268 269 270 271 270 269 269 269 268 268 268 267 268 269 269 271 272 273 274 275 275 275 274 273 273 272 271 271 271 270 270 270 270 270 269 269 268 267 266 265 265 264 264 264 264 265 265 265 266 266 265 264 263 262 261 260 260 261 262 262 262 262 262 262 262 263 263 263 263 264 264 265 267 268 268 268 268 267 267 266 266
270 270 273 275 276 276 275 275 274 272 270 270 269 269 269 269 269 269 269 269 270 271 272 273 274 274 274 274 274 273 272 271 271 270 270 270 270 270 270 270 270 269 268 268 267 266 265 264 264 263 264 264 264 264 265 265 265 265 264 263 262 262 261 262 262 263 263 263 263 263 264 263 263 263 264 264 264 265 265 265 265 265 265 265 265 265
276 277 280 282 281 279 277 275 274 274 274 273 273 273 273 273 273 273 273 273 273 274 274 274 274 273 273 273 273 273 273 272 271 271 271 270 270 270 270 270 269 269 268 268 267 267 266 266 265 264 263 263 262 263 263 264 264 264 264 264 264 263 263 263 263 262 263 263 263 263 264 264 264 264 264 264 264 264 264 263 263 263 263 263 264 265
Height
5736 5737 5738 5739 5739 5740 5740 5741 5742 5743 5744 5745 5747 5752 5752 5752 5755 5757 5757 5756 5757 5758 5758 5760 5761 5762 5763 5764 5763 5764 5764 5761 5760 5760 5759 5759 5760 5762 5765 5765 5765 5766 5767 5769 5770 5771 5771 5771 5772 5774 5776 5775 5776 5777 5778 5778 5778 5778 5779 5779 5778 5778 5778 5778 5777 5778 5778 5778 5777 5777 5777 5776 5776 5776 5775 5775 5776 5775 5775 5775 5775 5775 5775 5775 5775 5775
5735 5736 5736 5737 5738 5739 5739 5740 5741 5742 5743 5744 5746 5750 5752 5751 5752 5755 5756 5754 5755 5757 5758 5758 5759 5760 5761 5762 5762 5762 5761 5758 5757 5758 5758 5758 5759 5760 5762 5763 5763 5763 5764 5766 5768 5768 5769 5770 5770 5772 5773 5773 5773 5774 5775 5776 5776 5776 5776 5776 5776 5776 5776 5776 5776 5776 5776 5776 5776 5775 5775 5774 5774 5774 5773 5773 5773 5773 5773 5772 5772 5772 5772 5772 5772 5772
5733 5734 5734 5735 5737 5738 5738 5738 5739 5740 5741 5743 5744 5748 5750 5750 5750 5752 5754 5753 5752 5755 5757 5757 5758 5759 5759 5760 5761 5761 5759 5756 5755 5755 5756 5757 5757 5758 5759 5760 5760 5761 5761 5763 5764 5765 5767 5767 5768 5769 5771 5771 5771 5772 5773 5773 5773 5773 5774 5774 5774 5774 5774 5774 5773 5774 5774 5774 5774 5774 5774 5773 5773 5772 5771 5771 5771 5771 5771 5770 5770 5770 5770 5769 5769 5769
5731 5732 5731 5733 5735 5736 5736 5737 5738 5739 5740 5741 5742 5745 5748 5748 5748 5749 5751 5751 5750 5752 5754 5755 5757 5757 5758 5759 5760 5759 5759 5757 5755 5754 5754 5755 5756 5755 5756 5757 5758 5759 5759 5761 5762 5763 5764 5765 5765 5767 5768 5769 5769 5770 5771 5772 5771 5771 5771 5772 5772 5772 5772 5771 5771 5771 5771 5772 5772 5771 5771 5771 5771 5770 5770 5769 5769 5769 5768 5768 5768 5768 5768 5767 5767 5766
5729 5729 5729 5731 5733 5733 5734 5735 5736 5737 5738 5739 5741 5743 5745 5747 5746 5745 5746 5747 5748 5748 5749 5751 5753 5755 5757 5758 5758 5758 5758 5757 5755 5754 5754 5755 5754 5752 5752 5754 5755 5755 5756 5758 5759 5760 5761 5762 5762 5763 5764 5765 5766 5767 5768 5769 5769 5768 5769 5769 5769 5770 5770 5769 5769 5769 5769 5769 5769 5768 5768 5768 5768 5768 5768 5767 5767 5767 5766 5766 5766 5766 5766 5765 5765 5764
5727 5728 5728 5730 5731 5731 5732 5733 5734 5735 5736 5737 5739 5741 5743 5745 5745 5743 5742 5743 5743 5745 5746 5747 5749 5751 5754 5755 5755 5757 5757 5756 5755 5755 5755 5754 5752 5751 5751 5751 5752 5752 5753 5754 5756 5757 5758 5759 5759 5760 5761 5762 5763 5763 5764 5766 5766 5766 5767 5767 5768 5768 5768 5767 5767 5767 5766 5767 5766 5766 5766 5766 5765 5765 5765 5765 5764 5764 5764 5764 5764 5764 5764 5764 5763 5763
5726 5726 5726 5728 5729 5730 5731 5732 5732 5733 5734 5736 5737 5738 5740 5742 5742 5741 5740 5740 5740 5742 5744 5745 5746 5748 5749 5751 5753 5754 5755 5754 5753 5753 5753 5751 5750 5750 5750 5750 5750 5750 5751 5752 5753 5754 5755 5755 5757 5758 5758 5759 5759 5760 5761 5762 5763 5764 5765 5766 5766 5767 5766 5765 5764 5764 5764 5764 5764 5764 5764 5764 5763 5763 5763 5763 5762 5762 5762 5762 5762 5762 5762 5762 5761 5761
5724 5724 5724 5726 5727 5727 5729 5730 5730 5731 5732 5734 5735 5736 5737 5738 5738 5738 5738 5738 5739 5740 5742 5742 5744 5745 5747 5748 5750 5750 5751 5751 5749 5749 5750 5749 5748 5748 5749 5749 5748 5748 5749 5749 5750 5751 5752 5753 5754 5755 5756 5757 5757 5758 5759 5760 5761 5762 5763 5763 5764 5765 5764 5763 5762 5762 5762 5762 5762 5762 5762 5762 5761 5761 5761 5761 5760 5760 5760 5760 5759 5759 5759 5759 5759 5759
5722 5722 5722 5723 5725 5726 5726 5728 5728 5729 5730 5732 5733 5733 5733 5734 5735 5735 5736 5737 5737 5738 5739 5740 5741 5742 5743 5746 5747 5747 5747 5747 5746 5746 5747 5747 5747 5745 5746 5746 5746 5746 5746 5747 5748 5750 5751 5752 5753 5754 5755 5756 5756 5757 5758 5759 5759 5760 5761 5760 5760 5761 5761 5761 5760 5760 5760 5760 5760 5760 5760 5760 5759 5759 5759 5759 5758 5758 5758 5757 5757 5757 5758 5758 5757 5757
5720 5720 5720 5720 5722 5724 5724 5725 5725 5726 5728 5728 5728 5729 5730 5731 5733 5733 5735 5735 5735 5735 5736 5738 5739 5739 5739 5742 5744 5744 5745 5745 5744 5744 5745 5746 5746 5743 5742 5743 5744 5744 5744 5745 5746 5749 5751 5752 5753 5753 5754 5754 5755 5755 5756 5757 5757 5756 5757 5757 5756 5758 5758 5758 5757 5757 5757 5757 5758 5758 5758 5758 5757 5757 5757 5757 5756 5756 5756 5755 5755 5755 5755 5756 5756 5755
5717 5717 5718 5718 5720 5722 5722 5722 5722 5723 5725 5724 5725 5727 5727 5729 5730 5731 5731 5732 5732 5732 5734 5736 5738 5737 5736 5738 5740 5741 5743 5742 5742 5742 5743 5744 5744 5741 5739 5740 5742 5743 5742 5744 5745 5747 5749 5752 5752 5752 5751 5752 5752 5753 5754 5754 5754 5753 5754 5753 5753 5754 5755 5755 5754 5754 5754 5755 5755 5756 5756 5756 5755 5755 5754 5754 5754 5754 5754 5753 5753 5753 5753 5753 5754 5753
5715 5714 5715 5717 5718 5719 5719 5719 5719 5721 5722 5723 5724 5725 5725 5726 5727 5727 5728 5728 5729 5730 5732 5734 5734 5734 5733 5735 5737 5738 5739 5739 5739 5740 5740 5741 5742 5740 5739 5739 5739 5739 5739 5742 5743 5744 5747 5749 5750 5749 5749 5749 5750 5751 5751 5752 5751 5751 5751 5751 5751 5751 5752 5752 5752 5752 5752 5752 5753 5753 5753 5753 5753 5752 5752 5752 5752 5752 5752 5751 5751 5751 5752 5752 5752 5752
5712 5712 5713 5714 5716 5717 5717 5717 5717 5719 5721 5722 5722 5723 5723 5724 5724 5724 5725 5725 5726 5728 5730 5730 5730 5730 5731 5732 5733 5735 5736 5735 5736 5738 5737 5738 5739 5739 5739 5738 5737 5736 5738 5739 5740 5741 5743 5744 5745 5746 5746 5747 5747 5748 5748 5749 5749 5748 5748 5749 5749 5748 5748 5749 5749 5750 5749 5749 5749 5750 5750 5750 5750 5750 5749 5749 5749 5749 5749 5749 5749 5750 5750 5750 5750 5750
5710 5710 5711 5712 5713 5714 5715 5715 5716 5717 5718 5719 5720 5720 5720 5721 5721 5721 5722 5723 5724 5725 5726 5727 5728 5728 5729 5729 5730 5732 5732 5731 5733 5734 5734 5735 5736 5737 5737 5736 5737 5737 5738 5739 5739 5739 5739 5739 5741 5743 5744 5744 5744 5745 5745 5746 5746 5745 5745 5746 5747 5746 5745 5746 5746 5746 5747 5746 5746 5746 5746 5747 5747 5747 5747 5747 5747 5747 5747 5747 5748 5748 5748 5749 5749 5749
5708 5709 5710 5710 5710 5711 5713 5713 5714 5715 5715 5716 5717 5717 5718 5718 5719 5719 5720 5721 5722 5722 5723 5724 5725 5726 5727 5726 5727 5728 5728 5728 5730 5731 5731 5732 5733 5733 5733 5734 5736 5738 5739 5739 5738 5737 5736 5736 5737 5738 5740 5741 5741 5742 5742 5743 5743 5742 5741 5742 5743 5743 5742 5742 5742 5743 5744 5743 5743 5742 5743 5743 5744 5744 5745 5745 5745 5745 5745 5745 5746 5746 5747 5747 5747 5747
5706 5707 5708 5709 5709 5709 5711 5711 5712 5714 5714 5715 5715 5716 5716 5716 5716 5717 5718 5719 5719 5720 5721 5722 5723 5723 5724 5724 5724 5725 5726 5726 5727 5728 5728 5729 5729 5729 5730 5732 5734 5736 5737 5736 5735 5734 5735 5735 5734 5734 5737 5738 5737 5738 5739 5739 5739 5738 5737 5737 5739 5739 5739 5737 5737 5738 5740 5740 5740 5740 5740 5740 5741 5742 5742 5743 5743 5743 5743 5743 5744 5744 5745 5745 5746 5746
5703 5705 5706 5707 5707 5708 5710 5710 5711 5712 5712 5713 5714 5715 5715 5714 5714 5715 5716 5716 5717 5717 5719 5720 5721 5721 5721 5722 5723 5724 5724 5724 5724 5725 5725 5724 5725 5726 5728 5729 5731 5733 5733 5732 5732 5732 5732 5732 5732 5732 5733 5733 5733 5734 5735 5736 5735 5735 5734 5734 5735 5736 5736 5736 5734 5735 5736 5737 5737 5738 5737 5738 5738 5739 5740 5741 5741 5741 5741 5741 5741 5742 5742 5743 5744 5744
5700 5702 5704 5705 5707 5708 5709 5709 5710 5710 5710 5711 5713 5713 5713 5712 5713 5713 5714 5714 5715 5715 5717 5718 5719 5719 5719 5720 5720 5721 5721 5720 5721 5722 5721 5721 5723 5725 5725 5727 5728 5728 5728 5728 5729 5729 5729 5729 5729 5729 5730 5730 5730 5730 5731 5732 5732 5732 5732 5731 5732 5733 5734 5733 5733 5733 5734 5734 5735 5735 5735 5735 5736 5737 5738 5739 5739 5740 5740 5739 5739 5740 5740 5741 5742 5742
5697 5700 5701 5702 5704 5706 5706 5706 5708 5709 5709 5710 5712 5711 5711 5711 5711 5711 5711 5713 5713 5713 5715 5716 5716 5717 5717 5717 5717 5718 5718 5718 5717 5717 5717 5718 5721 5722 5723 5724 5724 5724 5724 5725 5725 5726 5726 5726 5726 5727 5727 5728 5728 5728 5728 5729 5729 5728 5728 5728 5729 5730 5730 5729 5729 5730 5731 5731 5732 5732 5732 5732 5733 5734 5736 5737 5738 5737 5738 5737 5737 5737 5738 5738 5739 5739
5695 5697 5699 5699 5701 5702 5702 5703 5706 5707 5707 5708 5709 5710 5710 5709 5709 5709 5710 5710 5711 5711 5712 5713 5714 5714 5714 5714 5715 5716 5716 5715 5714 5713 5713 5715 5717 5718 5720 5720 5720 5721 5722 5722 5722 5723 5723 5724 5724 5724 5724 5725 5726 5726 5726 5726 5726 5726 5725 5725 5725 5725 5725 5724 5725 5727 5728 5729 5729 5728 5729 5730 5730 5732 5733 5734 5735 5735 5735 5735 5735 5736 5736 5736 5736 5736
5692 5694 5695 5697 5699 5700 5701 5702 5705 5706 5705 5705 5706 5707 5708 5707 5707 5708 5708 5708 5708 5709 5709 5710 5711 5711 5711 5712 5713 5713 5713 5712 5711 5710 5710 5712 5713 5714 5716 5717 5717 5718 5719 5719 5719 5720 5720 5721 5722 5722 5722 5723 5723 5724 5724 5724 5725 5725 5724 5724 5724 5723 5722 5721 5721 5723 5725 5726 5726 5725 5726 5727 5728 5729 5731 5732 5733 5733 5733 5733 5734 5734 5734 5734 5735 5734
5690 5690 5693 5695 5697 5699 5700 5700 5700 5702 5703 5703 5704 5704 5704 5704 5704 5705 5706 5706 5706 5706 5706 5707 5708 5708 5708 5709 5710 5710 5709 5708 5708 5708 5708 5710 5711 5712 5713 5714 5714 5714 5715 5715 5716 5716 5717 5718 5718 5719 5719 5720 5721 5721 5722 5722 5723 5723 5723 5723 5723 5721 5720 5719 5718 5719 5721 5722 5723 5723 5724 5725 5726 5727 5728 5730 5730 5731 5731 5731 5731 5732 5732 5733 5733 5733
5687 5688 5691 5694 5695 5697 5697 5697 5697 5699 5700 5700 5702 5703 5702 5702 5702 5702 5703 5704 5704 5704 5704 5704 5705 5706 5706 5706 5707 5707 5706 5705 5704 5705 5707 5707 5708 5709 5710 5711 5710 5710 5711 5712 5713 5713 5713 5714 5714 5715 5716 5717 5718 5718 5719 5720 5720 5720 5721 5722 5721 5720 5718 5717 5715 5716 5717 5718 5720 5721 5721 5722 5723 5724 5725 5727 5727 5728 5728 5728 5729 5729 5730 5730 5731 5731
5686 5687 5689 5691 5692 5693 5695 5696 5697 5698 5697 5696 5698 5700 5700 5700 5699 5699 5700 5701 5701 5701 5702 5702 5703 5703 5703 5703 5703 5703 5702 5701 5701 5702 5703 5704 5704 5704 5706 5707 5706 5706 5707 5708 5709 5710 5710 5710 5710 5711 5712 5713 5714 5714 5715 5716 5716 5717 5717 5718 5718 5718 5717 5715 5714 5714 5714 5714 5716 5717 5719 5719 5719 5720 5721 5723 5723 5723 5724 5724 5725 5725 5726 5727 5727 5728
5682 5684 5685 5687 5688 5690 5692 5693 5694 5694 5692 5692 5693 5694 5695 5696 5696 5696 5697 5698 5698 5698 5698 5700 5699 5699 5699 5699 5699 5699 5699 5697 5697 5697 5698 5700 5700 5700 5702 5703 5703 5703 5703 5703 5704 5705 5706 5707 5707 5707 5708 5708 5709 5710 5711 5712 5712 5712 5713 5713 5714 5714 5714 5713 5712 5711 5711 5711 5712 5713 5715 5716 5716 5716 5716 5718 5719 5719 5719 5720 5721 5721 5722 5723 5724 5725
5679 5679 5681 5682 5684 5686 5688 5688 5688 5689 5689 5689 5688 5688 5690 5692 5692 5693 5694 5694 5694 5694 5695 5696 5695 5695 5696 5695 5694 5696 5696 5694 5693 5694 5695 5696 5696 5697 5698 5699 5699 5700 5699 5699 5700 5701 5702 5703 5703 5703 5704 5704 5705 5705 5706 5707 5707 5708 5708 5708 5709 5709 5710 5710 5710 5709 5708 5708 5708 5709 5710 5711 5712 5712 5712 5713 5714 5715 5716 5716 5717 5718 5718 5719 5720 5720
5675 5676 5677 5679 5680 5682 5684 5684 5685 5686 5687 5687 5686 5686 5687 5687 5687 5688 5690 5691 5690 5691 5692 5692 5691 5692 5693 5691 5690 5692 5693 5691 5689 5689 5691 5691 5692 5693 5694 5694 5695 5695 5695 5695 5695 5696 5697 5698 5698 5699 5700 5700 5700 5701 5701 5702 5703 5703 5704 5704 5704 5705 5705 5705 5706 5705 5705 5705 5705 5705 5705 5706 5706 5707 5708 5709 5710 5711 5711 5712 5713 5714 5714 5715 5716 5716
5671 5673 5674 5675 5676 5678 5679 5680 5681 5681 5683 5684 5684 5684 5684 5684 5683 5684 5685 5686 5686 5687 5689 5688 5687 5689 5689 5686 5686 5687 5687 5688 5687 5686 5687 5687 5688 5688 5689 5689 5690 5691 5691 5691 5690 5691 5692 5693 5693 5694 5695 5696 5697 5697 5696 5697 5697 5698 5699 5699 5700 5700 5700 5700 5701 5701 5701 5701 5701 5701 5700 5701 5701 5702 5703 5703 5705 5706 5706 5708 5709 5709 5710 5711 5711 5711
5666 5667 5669 5670 5672 5672 5673 5674 5675 5676 5678 5679 5679 5680 5681 5681 5680 5680 5680 5681 5680 5682 5683 5682 5683 5685 5684 5682 5682 5682 5682 5683 5683 5682 5682 5683 5683 5683 5683 5685 5685 5686 5687 5687 5686 5687 5687 5687 5687 5688 5689 5690 5692 5692 5692 5693 5693 5693 5693 5694 5695 5695 5696 5696 5696 5696 5696 5696 5696 5697 5696 5697 5697 5697 5697 5698 5699 5700 5701 5702 5703 5704 5705 5706 5706 5707
5662 5662 5663 5665 5666 5667 5668 5668 5670 5671 5672 5674 5675 5676 5676 5676 5675 5675 5676 5676 5675 5676 5677 5676 5678 5679 5677 5675 5677 5678 5678 5679 5679 5678 5677 5676 5677 5677 5678 5680 5679 5680 5681 5682 5683 5683 5682 5682 5681 5681 5682 5683 5684 5685 5686 5687 5688 5689 5688 5689 5690 5690 5690 5690 5690 5691 5691 5691 5691 5692 5692 5692 5692 5692 5692 5693 5694 5694 5695 5696 5697 5698 5698 5699 5700 5701
5656 5656 5657 5659 5661 5662 5663 5664 5665 5665 5665 5668 5670 5670 5670 5669 5670 5671 5672 5672 5671 5672 5672 5671 5672 5671 5669 5670 5671 5672 5673 5676 5676 5675 5673 5672 5671 5671 5672 5675 5674 5674 5674 5674 5676 5678 5678 5677 5676 5675 5676 5677 5678 5679 5679 5681 5682 5683 5682 5683 5684 5684 5684 5684 5685 5685 5686 5686 5686 5687 5687 5687 5687 5687 5688 5688 5688 5689 5689 5690 5691 5691 5692 5693 5693 5694
5650 5650 5652 5654 5655 5656 5657 5658 5658 5658 5659 5662 5663 5663 5663 5664 5666 5667 5668 5667 5665 5666 5667 5666 5664 5662 5661 5665 5667 5666 5668 5671 5671 5669 5668 5669 5667 5665 5666 5668 5668 5669 5668 5667 5669 5672 5673 5672 5671 5671 5671 5671 5673 5673 5673 5675 5676 5676 5676 5677 5678 5677 5677 5678 5679 5679 5680 5680 5680 5681 5682 5682 5682 5682 5683 5683 5683 5684 5684 5684 5685 5685 5686 5686 5687 5688
5644 5645 5646 5647 5649 5650 5650 5651 5652 5652 5655 5657 5655 5655 5657 5659 5661 5661 5661 5660 5658 5658 5661 5660 5657 5656 5657 5659 5660 5660 5662 5664 5664 5662 5661 5662 5664 5662 5661 5661 5661 5662 5663 5662 5662 5664 5666 5667 5667 5667 5667 5668 5669 5668 5667 5668 5670 5670 5669 5670 5671 5671 5671 5673 5673 5672 5673 5673 5674 5675 5676 5676 5677 5677 5677 5678 5677 5678 5678 5678 5678 5679 5679 5680 5680 5681
5639 5639 5641 5641 5642 5642 5643 5645 5646 5647 5649 5649 5649 5650 5652 5652 5653 5654 5654 5653 5652 5653 5654 5651 5649 5651 5652 5652 5652 5654 5656 5657 5656 5654 5653 5654 5658 5659 5657 5656 5655 5655 5656 5656 5657 5656 5657 5660 5661 5661 5662 5664 5664 5663 5662 5661 5662 5663 5663 5664 5666 5666 5666 5666 5667 5667 5667 5667 5668 5669 5670 5670 5671 5671 5671 5671 5671 5671 5672 5672 5672 5672 5672 5673 5673 5674
5633 5634 5635 5636 5636 5635 5635 5638 5639 5641 5642 5643 5642 5644 5645 5645 5646 5649 5648 5646 5646 5648 5648 5644 5644 5647 5646 5644 5645 5647 5648 5648 5648 5647 5646 5648 5652 5653 5651 5651 5650 5649 5649 5649 5650 5650 5651 5652 5652 5652 5654 5658 5658 5657 5657 5656 5655 5656 5657 5658 5660 5660 5660 5660 5661 5662 5662 5662 5663 5663 5664 5664 5665 5665 5665 5665 5665 5665 5665 5665 5666 5666 5666 5666 5666 5667
5628 5628 5630 5630 5629 5629 5629 5630 5632 5634 5635 5635 5635 5637 5638 5639 5640 5641 5641 5639 5639 5642 5642 5639 5639 5640 5638 5637 5639 5641 5640 5639 5640 5640 5640 5642 5645 5646 5644 5645 5645 5644 5644 5643 5642 5644 5645 5646 5645 5645 5646 5649 5649 5649 5650 5650 5650 5651 5651 5651 5652 5653 5653 5654 5654 5655 5656 5657 5657 5657 5658 5658 5659 5659 5659 5659 5659 5659 5659 5659 5659 5659 5660 5660 5660 5660
5623 5623 5623 5623 5622 5623 5624 5624 5625 5626 5627 5628 5629 5630 5632 5633 5632 5633 5633 5630 5631 5634 5635 5633 5633 5632 5630 5632 5635 5635 5633 5632 5632 5633 5633 5635 5637 5638 5638 5639 5639 5638 5638 5638 5636 5637 5639 5640 5639 5638 5639 5640 5640 5641 5642 5643 5643 5644 5644 5644 5645 5646 5646 5647 5647 5647 5648 5649 5650 5650 5651 5651 5652 5652 5652 5652 5652 5652 5652 5652 5653 5653 5653 5654 5654 5654
5618 5618 5618 5618 5617 5617 5617 5617 5618 5619 5620 5621 5622 5624 5626 5626 5624 5625 5625 5623 5623 5625 5625 5625 5626 5626 5625 5627 5629 5629 5627 5626 5625 5626 5627 5627 5629 5630 5630 5631 5632 5631 5632 5632 5631 5631 5632 5632 5632 5631 5631 5632 5633 5634 5635 5635 5635 5636 5637 5638 5638 5639 5639 5639 5639 5640 5641 5642 5642 5643 5643 5643 5644 5644 5645 5645 5645 5645 5645 5646 5646 5646 5646 5647 5647 5648
5612 5612 5612 5613 5611 5610 5611 5611 5611 5613 5614 5615 5615 5617 5619 5619 5617 5617 5617 5615 5615 5616 5616 5618 5619 5619 5619 5620 5621 5621 5620 5619 5619 5620 5620 5620 5621 5623 5623 5624 5625 5624 5624 5624 5623 5623 5624 5625 5624 5623 5623 5624 5626 5627 5628 5627 5627 5628 5628 5629 5631 5631 5631 5631 5632 5633 5634 5634 5635 5635 5636 5636 5636 5637 5637 5637 5638 5638 5638 5639 5639 5639 5639 5640 5640 5641
5606 5606 5606 5606 5606 5606 5606 5606 5606 5606 5607 5608 5609 5609 5610 5611 5611 5610 5608 5608 5608 5608 5609 5611 5611 5612 5613 5613 5614 5614 5613 5612 5613 5614 5614 5613 5614 5614 5616 5617 5617 5616 5616 5616 5616 5616 5617 5617 5616 5615 5615 5617 5619 5620 5620 5620 5620 5620 5620 5621 5622 5623 5624 5624 5624 5624 5625 5626 5627 5628 5628 5629 5629 5629 5629 5630 5630 5631 5631 5632 5632 5632 5632 5632 5632 5633
5601 5601 5601 5601 5602 5601 5601 5601 5601 5600 5600 5601 5602 5602 5602 5603 5604 5602 5601 5602 5602 5601 5601 5603 5603 5603 5605 5605 5605 5605 5604 5604 5605 5606 5606 5606 5606 5605 5606 5607 5607 5608 5607 5607 5607 5608 5608 5608 5608 5608 5608 5609 5611 5611 5611 5611 5611 5611 5612 5613 5614 5615 5615 5616 5616 5617 5618 5619 5619 5620 5621 5621 5621 5621 5621 5622 5622 5623 5624 5624 5625 5625 5625 5625 5625 5626
5595 5595 5595 5596 5596 5597 5596 5596 5596 5595 5595 5595 5594 5594 5596 5597 5596 5595 5595 5596 5595 5594 5594 5595 5594 5594 5595 5596 5596 5596 5595 5596 5597 5598 5598 5598 5598 5598 5598 5598 5598 5598 5598 5598 5598 5599 5599 5599 5599 5600 5600 5600 5600 5601 5601 5602 5602 5602 5603 5604 5606 5607 5607 5608 5608 5609 5610 5611 5612 5612 5613 5613 5613 5613 5614 5614 5615 5616 5616 5616 5617 5618 5618 5618 5619 5621
5589 5590 5590 5590 5590 5592 5592 5590 5591 5591 5589 5588 5588 5588 5589 5590 5589 5588 5588 5587 5587 5587 5589 5588 5586 5585 5586 5587 5587 5588 5589 5589 5590 5591 5591 5590 5589 5590 5590 5590 5590 5590 5589 5589 5589 5589 5590 5590 5590 5591 5592 5592 5592 5592 5593 5593 5594 5594 5594 5595 5597 5599 5600 5601 5602 5602 5603 5604 5604 5604 5604 5605 5605 5605 5606 5607 5607 5608 5608 5609 5610 5611 5611 5611 5612 5614
5583 5584 5585 5585 5585 5586 5586 5584 5586 5586 5582 5581 5583 5583 5582 5583 5581 5579 5579 5580 5579 5580 5582 5582 5581 5580 5579 5579 5579 5580 5580 5581 5581 5582 5582 5582 5581 5581 5581 5581 5581 5581 5581 5580 5580 5580 5580 5580 5581 5582 5583 5584 5584 5584 5584 5584 5584 5585 5585 5586 5588 5590 5592 5593 5594 5595 5595 5596 5596 5596 5596 5596 5597 5597 5598 5599 5600 5600 5601 5602 5603 5604 5604 5604 5605 5607
5578 5578 5580 5580 5579 5580 5581 5580 5580 5580 5575 5574 5577 5577 5576 5575 5573 5572 5574 5575 5575 5575 5575 5575 5575 5574 5573 5572 5571 5570 5570 5570 5570 5572 5572 5572 5572 5572 5571 5571 5572 5572 5572 5572 5571 5571 5570 5570 5570 5571 5573 5574 5575 5575 5574 5575 5576 5577 5578 5579 5580 5582 5584 5585 5586 5587 5587 5587 5587 5587 5588 5588 5589 5590 5590 5591 5592 5593 5594 5595 5596 5597 5597 5597 5598 5599
5574 5574 5575 5576 5574 5575 5576 5573 5573 5573 5570 5569 5570 5570 5569 5569 5567 5568 5570 5570 5569 5569 5568 5567 5567 5566 5565 5564 5563 5562 5561 5560 5560 5561 5562 5563 5563 5563 5563 5563 5563 5564 5563 5563 5562 5561 5560 5561 5561 5562 5563 5565 5566 5567 5567 5568 5570 5571 5572 5573 5573 5574 5575 5575 5576 5577 5578 5578 5579 5579 5580 5580 5581 5582 5583 5583 5584 5585 5586 5588 5588 5589 5590 5590 5591 5592
5569 5571 5571 5571 5570 5570 5569 5566 5566 5568 5567 5565 5564 5563 5564 5564 5564 5564 5563 5562 5561 5560 5559 5558 5558 5558 5557 5556 5555 5554 5554 5553 5553 5553 5553 5553 5554 5554 5554 5554 5555 5555 5555 5554 5553 5552 5552 5553 5554 5554 5555 5556 5557 5558 5559 5561 5562 5563 5564 5564 5565 5564 5564 5565 5566 5567 5568 5570 5571 5572 5572 5573 5574 5574 5574 5575 5576 5577 5579 5580 5581 5582 5583 5584 5583 5584
5565 5566 5565 5565 5565 5565 5563 5561 5563 5564 5563 5561 5560 5559 5559 5559 5558 5556 5555 5554 5553 5552 5551 5550 5549 5549 5549 5549 5547 5547 5547 5546 5545 5545 5545 5545 5545 5545 5545 5545 5545 5546 5546 5545 5545 5544 5545 5546 5547 5547 5547 5548 5548 5549 5550 5551 5552 5553 5554 5555 5555 5555 5555 5556 5557 5558 5560 5561 5562 5563 5564 5565 5566 5567 5567 5568 5569 5570 5571 5573 5574 5575 5576 5576 5577 5577
5560 5559 5559 5559 5560 5560 5559 5558 5559 5559 5557 5556 5555 5554 5552 5552 5551 5550 5549 5547 5546 5545 5544 5543 5542 5541 5540 5540 5539 5538 5538 5538 5538 5537 5537 5537 5537 5536 5536 5536 5536 5537 5537 5536 5536 5537 5537 5538 5538 5539 5539 5540 5540 5540 5540 5541 5542 5543 5544 5545 5546 5546 5547 5548 5549 5550 5551 5552 5553 5554 5555 5556 5558 5559 5559 5560 5562 5563 5564 5566 5567 5568 5568 5569 5570 5570
5555 5555 5555 5556 5556 5555 5554 5553 5552 5552 5551 5550 5548 5547 5546 5545 5544 5543 5542 5540 5539 5538 5537 5536 5536 5534 5532 5531 5530 5530 5529 5529 5529 5529 5529 5529 5528 5528 5528 5528 5528 5528 5528 5527 5527 5528 5528 5529 5530 5530 5531 5531 5531 5531 5531 5532 5533 5534 5534 5535 5536 5537 5538 5539 5540 5541 5543 5544 5544 5545 5546 5547 5549 5549 5550 5553 5555 5556 5557 5559 5560 5560 5561 5561 5562 5563
5551 5551 5552 5552 5551 5550 5548 5547 5545 5544 5543 5543 5541 5540 5539 5538 5537 5536 5534 5533 5533 5531 5530 5529 5528 5527 5525 5524 5522 5521 5521 5521 5521 5521 5521 5521 5520 5520 5520 5520 5520 5519 5519 5518 5519 5519 5519 5520 5521 5522 5522 5522 5522 5522 5523 5523 5524 5525 5525 5525 5526 5527 5528 5530 5531 5532 5534 5535 5536 5537 5537 5538 5539 5541 5543 5545 5547 5548 5549 5551 5552 5553 5553 5554 5555 5557